This demonstration page uses our WeatherBlox Daily Observations layout. Learn more.

Left ArrowRight Arrow

39.95233, -75.16379

Hourly Observations for August 8, 2022

Temp ( °F °C ) Dew Point ( °F °C ) Humidity (%) Winds ( mph kmh ) Pressure ( in mb ) Visibility ( mi km ) Precip ( " mm )
12:54 am 00:54 Mostly Clear 82 27.8 74 23.3 77 77 SSW 8 13 30.10 1019 10 16 0.00 0.00
1:54 am 01:54 Mostly Clear 81 27.2 74 23.3 79 79 SSW 7 11 30.09 1019 10 16 0.00 0.00
2:54 am 02:54 Partly Cloudy 80 26.7 74 23.3 82 82 SSW 7 11 30.08 1019 10 16 0.00 0.00
3:54 am 03:54 Mostly Clear 80 26.7 75 23.9 85 85 S 7 11 30.07 1018 10 16 0.00 0.00
4:54 am 04:54 Partly Cloudy 79 26.1 75 23.9 88 88 S 7 11 30.06 1018 10 16 0.00 0.00
5:54 am 05:54 Partly Cloudy 79 26.1 75 23.9 88 88 S 8 13 30.06 1018 10 16 0.00 0.00
6:54 am 06:54 Partly Cloudy 79 26.1 74 23.3 85 85 S 9 15 30.07 1018 10 16 0.00 0.00
7:54 am 07:54 Mostly Sunny 82 27.8 74 23.3 77 77 SSW 12 19 30.07 1018 10 16 0.00 0.00
8:54 am 08:54 Partly Cloudy 85 29.4 75 23.9 72 72 SW 15 24 30.06 1018 10 16 0.00 0.00
9:54 am 09:54 Partly Cloudy 87 30.6 74 23.3 65 65 SW 15 24 30.04 1017 10 16 0.00 0.00
10:54 am 10:54 Partly Cloudy 88 31.1 74 23.3 63 63 WSW 14 22 30.04 1017 10 16 0.00 0.00
11:54 am 11:54 Partly Cloudy 91 32.8 74 23.3 58 58 SW 14 22 30.03 1017 10 16 0.00 0.00
12:54 pm 12:54 Partly Cloudy 92 33.3 73 22.8 54 54 WSW 13 20 30.01 1016 10 16 0.00 0.00
1:54 pm 13:54 Partly Cloudy 94 34.4 72 22.2 49 49 WSW 16 26 29.99 1016 10 16 0.00 0.00
2:54 pm 14:54 Partly Cloudy 95 35 72 22.2 48 48 SW 16 26 29.98 1015 10 16 0.00 0.00
3:54 pm 15:54 Partly Cloudy 95 35 71 21.7 46 46 WSW 16 26 29.96 1015 10 16 0.00 0.00
4:54 pm 16:54 Partly Cloudy 95 35 72 22.2 48 48 WSW 20 31 29.95 1014 10 16 0.00 0.00
5:54 pm 17:54 Partly Cloudy 94 34.4 72 22.2 49 49 WSW 17 28 29.93 1013 10 16 0.00 0.00
6:54 pm 18:54 Partly Cloudy 93 33.9 72 22.2 51 51 SW 16 26 29.92 1013 10 16 0.00 0.00
7:54 pm 19:54 Partly Cloudy 91 32.8 73 22.8 56 56 SW 14 22 29.93 1014 10 16 0.00 0.00
8:54 pm 20:54 Partly Cloudy 89 31.7 74 23.3 61 61 SW 12 19 29.94 1014 10 16 0.00 0.00
9:54 pm 21:54 Mostly Clear 87 30.6 75 23.9 68 68 SSW 9 15 29.94 1014 10 16 0.00 0.00
10:54 pm 22:54 Mostly Clear 86 30 76 24.4 72 72 SSW 9 15 29.95 1014 10 16 0.00 0.00
11:54 pm 23:54 Mostly Clear 86 30 76 24.4 72 72 SW 13 20 29.96 1015 10 16 0.00 0.00

Powered by AerisWeather